User: anonymous   Login
Location: Unspecified
(0.0000°N, 0.0000°E)
Time: 13:47:09
(UTC+00:00)
Language:

LAPAN A3 - Orbit

View from above orbital plane
View from above orbital plane
View from above satellite
View from above satellite

Ground track
Ground track

The orbit data is extracted from the following two-line orbital elements,

1 41603U 16040E   17114.89873130 +.00000533 +00000-0 +28491-4 0  9997
2 41603 097.4669 177.5030 0011885 258.3845 214.4758 15.19316677046566
Epoch (UTC): 24 April 2017 21:34:10
Eccentricity: 0.0011885
inclination: 97.4669°
perigee height: 500 km
apogee height: 516 km
right ascension of ascending node: 177.5030°
argument of perigee: 258.3845°
revolutions per day: 15.19316677
mean anomaly at epoch: 214.4758°
orbit number at epoch: 4656

The dashed part of the orbit path shows where the satellite is in the earth's shadow,  

DLR